Location: Budapest
(47.4979°N, 19.0402°E)
Time: 11:31:21
(UTC+02:00)

Envisat - Pass Details

Date: 16 October 2017
Orbit: 764 x 766 km, 98.2° (Epoch: 16 October)

Event Time Altitude Azimuth Distance (km) Brightness Sun altitude
Exits shadow 21:45:37 19° 273° (W) 1,763 5.3 -38.4°
Drops below altitude 10° 21:48:59 10° 315° (NW) 2,311 6.2 -38.9°
Sets 21:51:59 0° 333° (NNW) 3,242 7.0 -39.3°
